CW0641 Weather Reports


Display with metric or nautical units.
time (UTC)temp
F
wind
direction
speed
MPH
gust
MPH
rain 1hr
in
rain 24hr
in
rain mn
in
humidity
%
barometer
mb
20260509064032 73 196 0.0 4.0 0.00 0.00 0.00 45 1016.0
20260509063705 73 122 1.0 4.0 0.00 0.00 0.00 46 1016.0
20260509063028 73 123 1.0 4.0 0.00 0.00 0.00 45 1016.0
20260509062029 72 127 0.0 3.0 0.00 0.00 0.00 48 1016.0
20260509061029 71 130 0.0 3.0 0.00 0.00 0.00 48 1016.0
20260509060654 71 143 0.0 3.0 0.00 0.00 0.00 48 1016.0
20260509055653 70 342 1.0 4.0 0.00 0.00 0.00 50 1016.2
20260509055021 70 0 1.0 4.0 0.00 0.00 0.00 50 1016.2
20260509054646 69 95 1.0 4.0 0.00 0.00 0.00 52 1016.2
20260509054015 69 21 0.0 4.0 0.00 0.00 0.00 52 1016.1
20260509053012 68 96 0.0 4.0 0.00 0.00 0.00 56 1016.0
20260509052651 67 96 0.0 4.0 0.00 0.00 0.00 57 1016.0
20260509052011 66 29 1.0 4.0 0.00 0.00 0.00 58 1016.0
20260509051644 65 28 1.0 5.0 0.00 0.00 0.00 62 1016.0
20260509051012 65 19 0.0 5.0 0.00 0.00 0.00 69 1016.1
20260509050645 64 121 0.0 2.0 0.00 0.00 0.00 73 1016.0
20260509045647 62 111 0.0 3.0 0.00 0.00 0.00 80 1016.0
20260509045008 62 284 0.0 2.0 0.00 0.00 0.00 84 1016.1
20260509044640 61 284 0.0 2.0 0.00 0.00 0.00 86 1016.0
20260509044004 60 284 0.0 2.0 0.00 0.00 0.00 86 1015.9
20260509043006 60 355 0.0 3.0 0.00 0.00 0.00 87 1015.9
20260509042637 60 355 0.0 3.0 0.00 0.00 0.00 88 1015.9
20260509042007 59 355 0.0 2.0 0.00 0.00 0.00 87 1015.8
20260509040635 59 355 0.0 2.0 0.00 0.00 0.00 89 1015.9
20260509035957 58 355 0.0 2.0 0.00 0.00 0.00 88 1015.9
20260509034951 58 355 0.0 2.0 0.00 0.00 0.00 88 1015.7
20260509034632 58 355 0.0 1.0 0.00 0.00 0.00 87 1015.7
20260509033953 58 355 0.0 1.0 0.00 0.00 0.00 87 1015.7
20260509033630 57 355 0.0 2.0 0.00 0.00 0.00 87 1015.5
20260509032943 57 355 0.0 2.0 0.00 0.00 0.00 87 1015.5
20260509031938 57 355 0.0 2.0 0.00 0.00 0.00 87 1015.5
20260509031623 57 355 0.0 1.0 0.00 0.00 0.00 87 1015.5
20260509030935 57 355 0.0 2.0 0.00 0.00 0.00 86 1015.5
20260509030620 57 355 0.0 2.0 0.00 0.00 0.00 86 1015.4
20260509025928 57 355 0.0 2.0 0.00 0.00 0.00 86 1015.7
20260509025616 57 355 0.0 1.0 0.00 0.00 0.00 86 1015.5
20260509024926 57 355 0.0 2.0 0.00 0.00 0.00 86 1015.5
20260509024612 58 355 1.0 3.0 0.00 0.00 0.00 86 1015.5
20260509023914 58 355 1.0 3.0 0.00 0.00 0.00 85 1015.4
20260509022916 58 355 2.0 5.0 0.00 0.00 0.00 84 1015.7
20260509022614 58 355 2.0 5.0 0.00 0.00 0.00 84 1015.7
20260509021906 58 355 2.0 5.0 0.00 0.00 0.00 83 1015.5
20260509021610 58 355 2.0 5.0 0.00 0.00 0.00 82 1015.5
20260509020906 59 355 2.0 5.0 0.00 0.00 0.00 81 1015.7
20260509020609 59 355 3.0 5.0 0.00 0.00 0.00 81 1015.3
20260509015607 60 16 2.0 5.0 0.00 0.00 0.00 79 1015.4
20260509014903 60 327 2.0 6.0 0.00 0.00 0.00 78 1015.4
20260509014602 60 0 3.0 6.0 0.00 0.00 0.00 77 1015.4
20260509013903 60 318 3.0 6.0 0.00 0.00 0.00 76 1015.5
20260509012900 61 301 3.0 6.0 0.00 0.00 0.00 74 1015.7
20260509012558 61 327 3.0 6.0 0.00 0.00 0.00 72 1015.7
20260509011900 61 332 3.0 6.0 0.00 0.00 0.00 71 1015.7
20260509011601 61 0 3.0 5.0 0.00 0.00 0.00 69 1015.7
20260509010852 62 355 4.0 6.0 0.00 0.00 0.00 67 1015.7
20260509010558 62 5 3.0 6.0 0.00 0.00 0.00 66 1015.7
20260509005851 62 327 2.0 6.0 0.00 0.00 0.00 64 1015.8
20260509005559 62 330 2.0 6.0 0.00 0.00 0.00 63 1015.8
20260509004552 62 335 2.0 5.0 0.00 0.00 0.00 60 1015.5
20260509003842 62 321 2.0 8.0 0.00 0.00 0.00 59 1015.7
20260509003548 62 292 3.0 8.0 0.00 0.00 0.00 58 1015.7
20260509002842 62 311 2.0 6.0 0.00 0.00 0.00 57 1015.7
20260509002547 62 346 2.0 5.0 0.00 0.00 0.00 57 1015.7
20260509001839 62 5 1.0 2.0 0.00 0.00 0.00 56 1015.8
20260509001545 62 5 1.0 2.0 0.00 0.00 0.00 56 1015.5
20260509000838 62 5 0.0 2.0 0.00 0.00 0.00 56 1015.4
20260509000545 62 5 0.0 0.0 0.00 0.00 0.00 55 1015.4
20260508234819 63 5 1.0 2.0 0.00 0.00 0.00 55 1015.2
20260508234540 63 5 0.0 2.0 0.00 0.00 0.00 55 1015.2
20260508233745 63 5 0.0 2.0 0.00 0.00 0.00 55 1015.2
20260508233535 63 5 1.0 3.0 0.00 0.00 0.00 55 1015.2
20260508232737 62 5 1.0 3.0 0.00 0.00 0.00 55 1015.2
20260508232533 62 5 2.0 4.0 0.00 0.00 0.00 55 1015.3
20260508231739 62 355 1.0 4.0 0.00 0.00 0.00 57 1015.3
20260508231530 62 330 1.0 4.0 0.00 0.00 0.00 58 1015.3
20260508230712 62 330 1.0 4.0 0.00 0.00 0.00 59 1015.3
20260508230206 62 329 0.0 2.0 0.00 0.00 0.00 59 1015.3
20260508225704 62 329 0.0 2.0 0.00 0.00 0.00 59 1015.4
20260508225202 62 329 0.0 2.0 0.00 0.00 0.00 59 1015.4
20260508224705 62 329 1.0 3.0 0.00 0.00 0.00 59 1015.4
20260508224200 62 329 0.0 3.0 0.00 0.00 0.00 58 1015.4
20260508223700 62 329 0.0 3.0 0.00 0.00 0.00 58 1015.7
20260508223203 62 329 0.0 3.0 0.00 0.00 0.00 58 1015.7
20260508222656 63 326 0.0 1.0 0.00 0.00 0.00 58 1015.8
20260508221640 63 326 0.0 2.0 0.00 0.00 0.00 58 1015.9
20260508221140 63 326 0.0 2.0 0.00 0.00 0.00 58 1015.9
20260508215636 63 326 0.0 2.0 0.00 0.00 0.00 58 1016.1
20260508215123 63 326 0.0 2.0 0.00 0.00 0.00 58 1016.0
20260508214624 63 326 1.0 3.0 0.00 0.00 0.00 58 1016.2
20260508214123 63 326 0.0 3.0 0.00 0.00 0.00 58 1016.2
20260508213606 63 324 0.0 3.0 0.00 0.00 0.00 59 1016.2
20260508213109 63 323 1.0 3.0 0.00 0.00 0.00 59 1016.3
20260508212106 63 331 1.0 4.0 0.00 0.00 0.00 60 1016.3
20260508211106 63 333 2.0 5.0 0.00 0.00 0.00 61 1016.5
20260508210606 63 328 2.0 5.0 0.00 0.00 0.00 62 1016.5
20260508210108 63 338 2.0 5.0 0.00 0.00 0.00 62 1016.5
20260508205607 63 346 2.0 5.0 0.00 0.00 0.00 63 1016.5
20260508205106 63 346 2.0 5.0 0.00 0.00 0.00 63 1016.6
20260508204607 63 346 1.0 3.0 0.00 0.00 0.00 64 1016.6
20260508204106 63 346 2.0 5.0 0.00 0.00 0.00 65 1016.7
20260508203607 62 348 2.0 5.0 0.00 0.00 0.00 65 1016.8
20260508202103 62 5 2.0 7.0 0.00 0.00 0.00 69 1016.6
20260508201600 61 15 3.0 10.0 0.00 0.00 0.00 71 1016.5
20260508200100 61 21 3.0 9.0 0.00 0.00 0.00 76 1016.6
20260508195600 61 345 2.0 5.0 0.00 0.00 0.00 77 1016.7
20260508194056 61 298 0.0 3.0 0.00 0.00 0.00 79 1016.6
20260508193554 61 296 1.0 3.0 0.00 0.00 0.00 79 1016.5
20260508193056 61 296 2.0 4.0 0.00 0.00 0.00 80 1016.6
20260508192541 61 315 1.0 4.0 0.00 0.00 0.00 80 1016.5
20260508191507 61 321 1.0 2.0 0.00 0.00 0.00 80 1016.7
20260508190505 62 322 1.0 3.0 0.00 0.00 0.00 81 1016.6
20260508185506 62 323 1.0 5.0 0.00 0.00 0.00 80 1016.6
20260508185007 62 309 0.0 3.0 0.00 0.00 0.00 80 1016.5
20260508183006 63 312 2.0 5.0 0.00 0.00 0.00 79 1016.4
20260508182507 63 314 3.0 8.0 0.00 0.00 0.00 78 1016.3
20260508182009 63 317 4.0 8.0 0.00 0.00 0.00 78 1016.3
20260508181508 64 323 4.0 9.0 0.00 0.00 0.00 77 1016.3
20260508181006 64 322 5.0 9.0 0.00 0.00 0.00 76 1016.4
20260508180504 64 0 4.0 8.0 0.00 0.00 0.00 76 1016.3
20260508180000 64 291 3.0 8.0 0.00 0.00 0.00 75 1016.3
20260508175452 64 294 3.0 7.0 0.00 0.00 0.00 74 1016.3
20260508174952 65 311 4.0 9.0 0.00 0.00 0.00 73 1016.3
20260508173946 65 315 6.0 13.0 0.00 0.00 0.00 70 1016.2
20260508173445 65 347 6.0 12.0 0.00 0.00 0.00 69 1016.3
20260508172945 65 334 6.0 11.0 0.00 0.00 0.00 69 1016.2
20260508172445 65 316 7.0 11.0 0.00 0.00 0.00 68 1016.2
20260508171445 65 325 6.0 11.0 0.00 0.00 0.00 67 1016.0
20260508170437 66 327 5.0 10.0 0.00 0.00 0.00 68 1015.8
20260508165933 66 321 4.0 10.0 0.00 0.00 0.00 68 1015.7
20260508165436 66 314 4.0 9.0 0.00 0.00 0.00 68 1015.7
20260508164926 66 312 6.0 13.0 0.00 0.00 0.00 68 1015.5
20260508163432 67 308 5.0 11.0 0.00 0.00 0.00 68 1015.3
20260508162928 67 5 5.0 11.0 0.00 0.00 0.00 67 1015.3
20260508162427 68 319 5.0 10.0 0.00 0.00 0.00 67 1015.2
20260508161927 68 338 6.0 11.0 0.00 0.00 0.00 67 1015.2
20260508161425 68 348 6.0 14.0 0.00 0.00 0.00 66 1015.2
20260508160920 68 325 8.0 14.0 0.00 0.00 0.00 65 1015.2
20260508155422 69 337 5.0 12.0 0.00 0.00 0.00 63 1015.1
20260508154914 70 42 6.0 12.0 0.00 0.00 0.00 62 1015.0
20260508154420 70 333 6.0 11.0 0.00 0.00 0.00 61 1015.0
20260508153911 70 340 6.0 11.0 0.00 0.00 0.00 61 1015.1
20260508153420 70 0 6.0 13.0 0.00 0.00 0.00 60 1015.1
20260508152901 71 302 4.0 13.0 0.00 0.00 0.00 59 1015.0
20260508152432 71 24 4.0 11.0 0.00 0.00 0.00 59 1015.0
20260508151413 72 338 5.0 12.0 0.00 0.00 0.00 58 1015.0
20260508150903 72 15 5.0 12.0 0.00 0.00 0.00 58 1014.9
20260508150412 72 323 6.0 13.0 0.00 0.00 0.00 57 1015.0
20260508145857 73 342 6.0 13.0 0.00 0.00 0.00 57 1015.0
20260508145413 73 348 4.0 13.0 0.00 0.00 0.00 57 1014.9
20260508144852 73 15 4.0 10.0 0.00 0.00 0.00 57 1014.8
20260508143845 73 5 5.0 11.0 0.00 0.00 0.00 57 1014.9
20260508143408 74 12 4.0 9.0 0.00 0.00 0.00 57 1014.8
20260508142406 74 16 5.0 11.0 0.00 0.00 0.00 56 1014.8
20260508141846 74 340 5.0 10.0 0.00 0.00 0.00 56 1014.8
20260508141403 75 338 5.0 11.0 0.00 0.00 0.00 56 1014.8
20260508140405 75 355 4.0 9.0 0.00 0.00 0.00 56 1014.7
20260508135843 75 347 4.0 9.0 0.00 0.00 0.00 56 1014.8
20260508135406 75 303 5.0 11.0 0.00 0.00 0.00 56 1014.8
20260508134832 75 0 5.0 11.0 0.00 0.00 0.00 56 1014.8
20260508133356 76 0 5.0 12.0 0.00 0.00 0.00 56 1014.9
20260508132352 76 5 5.0 10.0 0.00 0.00 0.00 56 1014.8
20260508131353 76 0 5.0 11.0 0.00 0.00 0.00 55 1014.8
20260508130840 76 40 5.0 11.0 0.00 0.00 0.00 55 1014.8
20260508130352 76 19 5.0 12.0 0.00 0.00 0.00 54 1014.9
20260508125831 77 346 5.0 12.0 0.00 0.00 0.00 54 1014.9
20260508125347 77 305 6.0 13.0 0.00 0.00 0.00 54 1015.0
20260508124826 77 355 6.0 13.0 0.00 0.00 0.00 53 1015.0
20260508124346 77 355 5.0 10.0 0.00 0.00 0.00 53 1015.0
20260508123821 77 351 5.0 11.0 0.00 0.00 0.00 53 1015.0
20260508123343 77 355 5.0 11.0 0.00 0.00 0.00 53 1015.2
20260508122821 77 310 4.0 10.0 0.00 0.00 0.00 52 1015.2
20260508122344 77 306 4.0 13.0 0.00 0.00 0.00 50 1015.2
20260508121823 78 5 4.0 13.0 0.00 0.00 0.00 50 1015.2
20260508121340 78 262 4.0 10.0 0.00 0.00 0.00 49 1015.1
20260508120813 78 332 4.0 11.0 0.00 0.00 0.00 49 1015.2
20260508115814 78 286 4.0 11.0 0.00 0.00 0.00 48 1015.3
20260508115337 78 263 4.0 11.0 0.00 0.00 0.00 45 1015.3
20260508114812 79 27 1.0 8.0 0.00 0.00 0.00 43 1015.3
20260508114336 79 275 0.0 5.0 0.00 0.00 0.00 39 1015.4
20260508113813 79 17 0.0 5.0 0.00 0.00 0.00 39 1015.5
20260508113332 79 318 0.0 3.0 0.00 0.00 0.00 37 1015.7
20260508112811 78 110 0.0 4.0 0.00 0.00 0.00 34 1015.7
20260508112329 78 181 0.0 4.0 0.00 0.00 0.00 34 1015.8
20260508111811 78 227 1.0 4.0 0.00 0.00 0.00 33 1015.8
20260508111329 78 119 2.0 8.0 0.00 0.00 0.00 33 1015.8
20260508110815 78 142 2.0 8.0 0.00 0.00 0.00 33 1015.8
20260508110327 78 137 1.0 5.0 0.00 0.00 0.00 32 1015.8
20260508105805 79 126 1.0 5.0 0.00 0.00 0.00 32 1015.8
20260508104324 78 187 1.0 5.0 0.00 0.00 0.00 31 1015.8
20260508103807 77 224 1.0 5.0 0.00 0.00 0.00 31 1015.9
20260508103324 77 219 1.0 5.0 0.00 0.00 0.00 31 1016.0
20260508102802 77 134 1.0 4.0 0.00 0.00 0.00 32 1015.9
20260508102319 76 152 1.0 5.0 0.00 0.00 0.00 31 1016.0
20260508101318 77 162 1.0 7.0 0.00 0.00 0.00 32 1016.1
20260508100800 76 217 1.0 5.0 0.00 0.00 0.00 31 1016.2
20260508100317 76 126 1.0 5.0 0.00 0.00 0.00 32 1016.2
20260508095759 76 126 1.0 5.0 0.00 0.00 0.00 31 1016.2
20260508095318 75 202 1.0 5.0 0.00 0.00 0.00 33 1016.1
20260508094752 75 203 1.0 6.0 0.00 0.00 0.00 32 1016.2
20260508094313 75 136 1.0 6.0 0.00 0.00 0.00 32 1016.3
20260508093754 75 134 1.0 6.0 0.00 0.00 0.00 33 1016.3
20260508093310 75 0 1.0 6.0 0.00 0.00 0.00 31 1016.4
20260508092313 75 101 2.0 5.0 0.00 0.00 0.00 33 1016.6
20260508091753 74 171 1.0 5.0 0.00 0.00 0.00 34 1016.5
20260508091304 74 144 1.0 5.0 0.00 0.00 0.00 34 1016.4
20260508090302 74 34 1.0 6.0 0.00 0.00 0.00 34 1016.5
20260508085753 73 5 2.0 7.0 0.00 0.00 0.00 33 1016.7
20260508085301 73 144 2.0 7.0 0.00 0.00 0.00 32 1016.7
20260508084752 73 134 1.0 6.0 0.00 0.00 0.00 33 1016.7
20260508084300 73 132 2.0 7.0 0.00 0.00 0.00 33 1016.6
20260508083746 73 154 2.0 7.0 0.00 0.00 0.00 34 1016.7
20260508083257 73 132 1.0 5.0 0.00 0.00 0.00 32 1016.7
20260508082743 73 157 1.0 5.0 0.00 0.00 0.00 32 1016.8
20260508082255 73 121 1.0 4.0 0.00 0.00 0.00 31 1016.8
20260508081744 73 130 1.0 6.0 0.00 0.00 0.00 39 1016.8
20260508081255 73 114 1.0 6.0 0.00 0.00 0.00 42 1016.8
20260508080742 72 186 1.0 4.0 0.00 0.00 0.00 43 1016.8
20260508080252 72 141 1.0 5.0 0.00 0.00 0.00 44 1016.8
20260508075741 72 130 1.0 7.0 0.00 0.00 0.00 44 1016.9
20260508074736 72 151 1.0 4.0 0.00 0.00 0.00 46 1016.9
20260508074251 71 136 1.0 4.0 0.00 0.00 0.00 46 1016.9
20260508073737 71 132 0.0 2.0 0.00 0.00 0.00 47 1016.9
20260508073250 71 260 0.0 4.0 0.00 0.00 0.00 50 1016.8
20260508072736 70 278 0.0 4.0 0.00 0.00 0.00 48 1016.9
20260508072244 70 205 1.0 3.0 0.00 0.00 0.00 47 1016.8
20260508071731 69 205 1.0 4.0 0.00 0.00 0.00 49 1016.8
20260508071242 69 155 1.0 5.0 0.00 0.00 0.00 48 1016.8
20260508065730 68 138 1.0 4.0 0.00 0.00 0.00 55 1016.5
20260508065242 68 142 0.0 4.0 0.00 0.00 0.00 56 1016.6
20260508064236 68 290 1.0 3.0 0.00 0.00 0.00 59 1016.6